Powrót do katalogu

DMSP 5D-2 F13 DEB

AktywnySSO
NORAD 40416·DEBRIS·🇺🇸 United States

Wystrzelony Mar 24, 1995 z Vandenberg Space Force Base

Loading…

Następne Przeloty (najbliższe 24 godziny)

TLE

ŚwieżeSource: Space-Track

Epoka: Sep 13, 2026, 12:22 UTC

1 40416U 95015AD  26256.51564161  .00001231  00000-0  50990-3 0  9998
2 40416  98.7360 282.7619 0005203 177.7287 182.3918 14.28427137598366

Śledź DMSP 5D-2 F13 DEB w czasie rzeczywistym z AllMySat

Download on the App Store